TimeCST,TemperatureF,Dew PointF,Humidity,Sea Level PressureIn,VisibilityMPH,Wind Direction,Wind SpeedMPH,Gust SpeedMPH,PrecipitationIn,Events,Conditions,WindDirDegrees,DateUTC
12:53 AM,-4.0,-9.9,76,30.38,10.0,SE,4.6,-,N/A,,Clear,130,2013-01-26 06:53:00
1:53 AM,-2.9,-9.0,75,30.36,10.0,SE,3.5,-,N/A,,Overcast,130,2013-01-26 07:53:00
2:53 AM,-2.0,-9.0,72,30.35,10.0,SE,6.9,-,N/A,,Mostly Cloudy,140,2013-01-26 08:53:00
3:53 AM,-2.0,-9.0,72,30.32,10.0,SSE,5.8,-,N/A,,Scattered Clouds,150,2013-01-26 09:53:00
4:53 AM,-0.0,-9.9,63,30.32,10.0,SSE,10.4,-,N/A,,Overcast,160,2013-01-26 10:53:00
5:53 AM,1.0,-8.0,66,30.31,10.0,SSE,11.5,-,N/A,,Overcast,160,2013-01-26 11:53:00
6:53 AM,1.9,-7.1,66,30.28,10.0,SSE,13.8,-,N/A,,Overcast,160,2013-01-26 12:53:00
7:53 AM,1.9,-7.1,66,30.28,10.0,SSE,16.1,21.9,N/A,,Scattered Clouds,160,2013-01-26 13:53:00
8:53 AM,3.0,-6.0,66,30.26,10.0,SSE,19.6,-,N/A,,Clear,160,2013-01-26 14:53:00
9:53 AM,5.0,-4.0,66,30.22,10.0,SSE,19.6,28.8,N/A,,Clear,160,2013-01-26 15:53:00
10:53 AM,7.0,-2.9,64,30.22,10.0,South,17.3,28.8,N/A,,Overcast,170,2013-01-26 16:53:00
11:53 AM,9.0,-0.0,67,30.20,10.0,SSE,17.3,21.9,N/A,,Clear,150,2013-01-26 17:53:00
12:53 PM,12.0,1.0,61,30.17,10.0,SSE,16.1,26.5,N/A,,Clear,150,2013-01-26 18:53:00
1:53 PM,14.0,3.9,64,30.13,10.0,SSE,18.4,24.2,N/A,,Partly Cloudy,150,2013-01-26 19:53:00
2:53 PM,16.0,5.0,62,30.11,10.0,SSE,19.6,25.3,N/A,,Partly Cloudy,150,2013-01-26 20:53:00
3:53 PM,18.0,7.0,62,30.11,10.0,SSE,17.3,24.2,N/A,,Clear,160,2013-01-26 21:53:00
4:53 PM,18.0,8.1,65,30.10,10.0,SSE,15.0,-,N/A,,Clear,160,2013-01-26 22:53:00
5:53 PM,17.1,8.1,68,30.10,10.0,SSE,11.5,-,N/A,,Clear,160,2013-01-26 23:53:00
6:53 PM,17.1,8.1,68,30.09,10.0,SSE,13.8,23.0,N/A,,Clear,160,2013-01-27 00:53:00
7:53 PM,17.1,8.1,68,30.10,10.0,SSE,16.1,23.0,N/A,,Clear,160,2013-01-27 01:53:00
8:53 PM,17.1,8.1,68,30.09,10.0,SSE,12.7,-,N/A,,Clear,160,2013-01-27 02:53:00
9:53 PM,16.0,7.0,68,30.06,10.0,SSE,8.1,-,N/A,,Clear,150,2013-01-27 03:53:00
10:53 PM,16.0,7.0,68,30.08,10.0,SSE,5.8,-,N/A,,Clear,150,2013-01-27 04:53:00
11:53 PM,12.9,6.1,74,30.07,10.0,ESE,3.5,-,N/A,,Clear,120,2013-01-27 05:53:00